Location: Banios
(43.0451°N, 0.2335°E)
Time: 12:58:43
(UTC+00:00)

A-11 Canister half - Pass Details

Date: 12 May 2021
Orbit: 1513 x 1686 km, 47.2° (Epoch: 14 June)

Event Time Altitude Azimuth Distance (km) Brightness Sun altitude
Rises 13:43:51 0° 211° (SSW) 4,687 12.0 56.3°
Reaches altitude 10° 13:47:07 10° 205° (SSW) 3,690 11.7 55.8°
Maximum altitude 13:55:37 43° 138° (SE) 2,032 10.2 54.6°
Drops below altitude 10° 14:04:05 10° 71° (ENE) 3,680 10.8 53.3°
Sets 14:07:19 0° 65° (ENE) 4,673 11.2 52.8°
